Location: Atherton
(17.2661°S, 145.4859°E)
Time: 00:02:54
(UTC+10:00)

Vanguard 1 - Pass Details

Date: 27 June 2025
Orbit: 649 x 3822 km, 34.2° (Epoch: 17 July)

Event Time Altitude Azimuth Distance (km) Brightness Sun altitude
Rises 14:18:32 0° 332° (NNW) 7,525 15.4 40.3°
Reaches altitude 10° 14:24:26 10° 341° (NNW) 6,745 15.4 39.5°
Maximum altitude 14:44:03 34° 38° (NE) 5,007 14.1 36.5°
Drops below altitude 10° 15:00:38 10° 95° (E) 5,849 13.7 33.8°
Sets 15:05:06 0° 104° (ESE) 6,478 13.8 33.0°
